FW1686 Weather Reports


Display with metric or nautical units.
time (UTC)temp
F
wind
direction
speed
MPH
gust
MPH
rain 1hr
in
rain 24hr
in
rain mn
in
humidity
%
barometer
mb
20260504021504 51 214 3.0 5.0 0.00 0.00 0.00 52 1013.6
20260504020019 50 197 1.0 6.0 0.00 0.00 0.00 54 1013.9
20260504014526 50 219 2.0 4.0 0.00 0.00 0.00 55 1013.9
20260504013034 51 227 1.0 4.0 0.00 0.00 0.00 52 1013.5
20260504011541 52 228 2.0 5.0 0.00 0.00 0.00 50 1013.4
20260504010051 52 235 2.0 5.0 0.00 0.00 0.00 50 1013.4
20260504004554 53 232 2.0 5.0 0.00 0.00 0.00 49 1013.5
20260504003009 53 227 2.0 6.0 0.00 0.00 0.00 48 1013.4
20260504001510 54 254 2.0 7.0 0.00 0.00 0.00 47 1013.6
20260504000022 55 240 4.0 9.0 0.00 0.00 0.00 46 1013.5
20260503234533 55 219 6.0 10.0 0.00 0.00 0.00 44 1013.6
20260503233041 56 242 7.0 14.0 0.00 0.00 0.00 44 1013.7
20260503231522 56 225 4.0 12.0 0.00 0.00 0.00 44 1013.7
20260503230029 56 198 4.0 14.0 0.00 0.00 0.00 44 1013.7
20260503224512 57 227 5.0 12.0 0.00 0.00 0.00 43 1013.7
20260503223012 57 238 8.0 13.0 0.00 0.00 0.00 41 1013.9
20260503221520 57 201 8.0 17.0 0.00 0.00 0.00 42 1013.9
20260503220022 58 242 4.0 14.0 0.00 0.00 0.00 41 1013.9
20260503214526 59 285 4.0 15.0 0.00 0.00 0.00 40 1014.0
20260503213034 59 215 6.0 12.0 0.00 0.00 0.00 41 1013.8
20260503211544 59 249 6.0 14.0 0.00 0.00 0.00 39 1013.8
20260503210048 59 231 9.0 14.0 0.00 0.00 0.00 40 1013.9
20260503204559 57 202 9.0 17.0 0.00 0.00 0.00 42 1014.1
20260503203012 57 265 4.0 14.0 0.00 0.00 0.00 43 1014.2
20260503201514 57 278 8.0 17.0 0.00 0.00 0.00 41 1014.4
20260503200021 57 243 6.0 14.0 0.00 0.00 0.00 40 1014.5
20260503194506 59 234 8.0 17.0 0.00 0.00 0.00 41 1014.7
20260503193026 57 286 4.0 15.0 0.00 0.00 0.00 41 1014.9
20260503191516 58 325 8.0 21.0 0.00 0.00 0.00 40 1015.3
20260503190018 58 284 8.0 18.0 0.00 0.00 0.00 44 1015.5
20260503184525 56 301 5.0 15.0 0.00 0.00 0.00 43 1015.8
20260503183024 58 193 8.0 16.0 0.00 0.00 0.00 44 1016.0
20260503181530 57 258 7.0 16.0 0.00 0.00 0.00 42 1016.1
20260503180041 57 238 8.0 17.0 0.00 0.00 0.00 43 1016.3
20260503174533 55 221 3.0 16.0 0.00 0.00 0.00 44 1016.6
20260503173035 55 261 7.0 17.0 0.00 0.00 0.00 44 1016.7
20260503171540 55 228 6.0 17.0 0.00 0.00 0.00 43 1017.0
20260503081521 34 250 2.0 5.0 0.00 0.00 0.00 85 1016.8
20260503071524 35 259 1.0 4.0 0.00 0.00 0.00 85 1016.5
20260503060113 35 258 1.0 6.0 0.00 0.00 0.00 86 1016.7
20260503054601 34 267 1.0 3.0 0.00 0.00 0.00 86 1016.7
20260503053009 34 265 1.0 4.0 0.00 0.00 0.00 86 1016.8
20260503051515 34 261 1.0 4.0 0.00 0.00 0.00 86 1016.9
20260503050022 34 259 1.0 3.0 0.00 0.00 0.00 86 1016.9
20260503044532 34 257 0.0 0.0 0.00 0.00 0.00 85 1017.0
20260503043035 34 258 1.0 3.0 0.00 0.00 0.00 85 1017.1
20260503041537 34 258 2.0 4.0 0.00 0.00 0.00 85 1017.1
20260503040042 35 265 1.0 4.0 0.00 0.00 0.00 84 1017.1
20260503034551 35 279 1.0 3.0 0.00 0.00 0.00 84 1017.1
20260503033057 35 279 1.0 3.0 0.00 0.00 0.00 83 1017.2
20260503031558 36 280 0.0 0.0 0.00 0.00 0.00 83 1017.1
20260503030006 36 280 1.0 3.0 0.00 0.00 0.00 83 1017.1
20260503024514 36 282 0.0 3.0 0.00 0.00 0.00 82 1017.2
20260503023006 37 283 2.0 3.0 0.00 0.00 0.00 81 1017.4